GFSGL_sfc_temp_138.txt.gz
Temp
42 42 40 39 37 37 35 35 35 35 35 33 33 32 33 35 36 35 35 34 33 31 31 30 31 33 33 36 35 35 35 36 33 37 42 42 41 40 41 41 44 47 45
40 40 36 36 36 35 34 34 34 33 33 33 32 31 32 33 33 33 32 32 30 31 29 29 29 33 32 33 33 33 32 35 33 33 38 37 37 38 39 40 42 46 44
39 36 35 35 34 33 33 33 33 32 31 30 30 30 31 32 33 33 30 29 28 28 29 28 28 29 29 31 31 31 31 34 34 33 31 35 35 36 36 38 39 39 43
39 36 34 33 33 32 32 31 31 32 29 28 29 29 31 33 33 32 29 28 28 27 28 29 29 28 28 29 29 29 30 31 32 31 29 30 29 32 33 31 32 35 37
38 35 32 32 33 31 30 29 29 30 28 28 29 29 31 33 33 29 28 27 27 27 28 29 30 29 31 30 28 27 28 28 28 28 26 27 26 26 25 29 28 30 35
34 33 33 32 31 30 29 28 28 27 27 27 27 28 28 32 33 32 29 26 26 26 26 27 29 28 27 28 28 28 28 26 24 23 23 22 23 25 25 26 26 26 27
33 33 31 31 30 29 29 28 26 24 24 23 24 26 26 29 31 30 28 25 24 23 22 24 28 29 26 26 25 25 24 28 27 22 20 21 22 24 24 25 25 26 24
32 31 30 29 28 27 26 24 22 20 14 14 19 20 24 28 30 29 27 23 22 22 22 24 22 24 25 24 23 20 18 18 23 24 21 21 22 25 23 25 24 25 24
30 29 29 28 26 26 20 19 19 20 15 12 15 19 19 21 29 28 24 20 18 18 22 23 23 23 28 25 19 17 14 14 20 24 24 24 24 26 25 21 18 20 17
29 28 28 27 23 19 15 20 19 17 14 18 16 15 24 16 30 28 20 16 15 17 18 20 29 26 28 26 17 15 12 12 12 13 13 14 16 17 22 17 16 16 15
29 29 29 28 26 24 20 17 24 20 14 12 12 11 13 19 21 29 28 12 11 17 18 17 21 27 27 26 23 17 15 12 12 12 11 11 12 13 14 15 14 14 13
29 28 26 27 29 28 22 24 24 22 14 8 9 11 11 10 26 29 29 27 24 15 9 13 20 25 24 25 21 22 20 13 12 10 9 8 9 10 12 13 12 13 12
28 25 26 28 27 27 24 23 22 20 18 16 15 8 9 13 10 25 28 27 25 13 15 23 23 22 20 15 21 20 12 11 10 8 7 6 8 9 12 13 13 14 12
28 28 28 25 24 24 24 24 21 20 18 18 15 9 8 11 12 14 14 14 18 14 11 10 10 16 5 4 7 10 10 8 5 3 3 1 8 9 10 11 10 11 10
29 29 27 26 24 22 21 20 21 17 21 17 12 13 8 7 13 23 19 14 10 12 8 5 1 -2 1 5 6 7 8 9 7 7 5 6 6 7 7 11 10 9 6
29 26 25 24 23 22 22 21 27 26 26 26 24 19 12 24 27 27 26 25 23 20 8 -0 -1 -2 2 5 4 4 7 7 7 7 4 4 4 4 6 8 10 7 5
28 27 25 24 23 20 21 21 18 23 27 27 27 27 26 26 26 25 24 23 21 16 5 -0 -5 -3 3 6 5 5 4 6 6 4 2 1 2 3 4 6 7 7 5
27 27 24 22 20 19 17 15 13 11 7 7 19 21 24 26 24 22 20 16 8 10 8 6 4 4 5 5 4 3 4 3 2 1 -0 -1 -2 1 2 4 5 4 5
24 22 22 21 20 18 18 16 15 13 8 4 5 10 11 24 22 19 16 3 1 4 7 7 6 4 4 4 -4 -4 -6 -4 -5 -9 -4 -3 -5 -1 -0 2 4 4 5
24 22 23 22 21 20 19 18 17 16 13 8 7 5 11 11 3 -2 -5 -6 -0 4 4 5 6 3 -0 1 -8 -12 -6 -7 -4 -4 -6 -7 -7 -3 -2 0 1 2 5
23 23 21 22 21 20 19 17 17 15 13 10 6 3 8 10 6 4 4 -5 -2 2 -3 2 -0 -4 -5 -6 -0 -6 -6 -11 -7 -5 -5 -4 -7 -6 -2 -0 1 3 6
24 23 23 21 21 19 19 19 16 15 13 12 9 6 8 7 6 4 2 -5 -6 -1 1 -3 -1 -1 -2 -4 -6 -14 -12 -17 -14 -8 -7 -6 -5 -4 -2 -2 -1 1 4
24 22 21 20 19 15 15 16 13 12 11 9 11 10 7 2 2 3 -1 -12 -6 -9 -8 -7 -10 -7 -6 -12 -11 -7 -10 -9 -7 -10 -10 -8 -6 -5 -4 -3 -2 1 2
21 19 19 16 16 14 11 8 10 10 11 8 6 5 4 -2 -5 -7 -13 -16 -15 -17 -18 -14 -10 -8 -8 -14 -12 -8 -5 -11 -10 -7 -10 -9 -7 -4 -3 -3 0 2 1
19 17 15 15 13 11 8 9 6 7 8 7 4 3 1 -2 -4 -13 -17 -16 -15 -17 -12 -14 -14 -10 -11 -13 -10 -12 -14 -11 -14 -12 -11 -7 -5 -6 -3 1 2 1 -0
17 16 14 13 11 11 11 9 6 7 6 4 1 0 -1 -4 -4 -11 -17 -15 -14 -14 -14 -14 -11 -11 -11 -7 -6 -6 -12 -12 -14 -11 -12 -6 -6 -5 -1 -1 -1 -1 -0

GFSGL_sfc_temp_141.txt.gz
Temp
38 38 36 35 35 34 33 33 32 32 31 30 30 31 32 33 33 31 31 30 30 28 29 29 29 31 31 32 33 32 32 33 32 37 40 39 37 37 39 41 43 44 44
38 36 35 35 34 32 32 32 31 29 30 29 30 30 31 32 30 28 28 28 27 26 28 28 28 32 30 30 30 30 30 33 31 29 34 34 33 35 36 37 40 42 44
37 35 34 33 32 31 30 30 30 29 28 28 29 29 30 31 29 28 28 28 27 27 28 28 28 29 28 29 29 29 30 33 32 30 29 32 30 32 31 34 36 37 42
36 34 32 31 31 30 30 30 29 28 27 27 29 30 33 30 29 28 28 27 27 28 29 29 28 28 27 28 28 28 29 28 27 26 25 26 26 28 28 27 28 32 34
36 33 31 31 31 30 29 29 29 28 27 28 28 32 33 31 30 27 27 27 27 27 29 29 29 30 30 29 28 26 26 24 23 23 22 23 22 22 21 25 26 27 33
34 32 32 31 30 29 28 27 27 26 26 26 26 30 30 31 30 30 27 25 26 25 26 28 28 27 27 28 27 27 27 22 20 20 20 19 20 20 21 21 22 22 24
32 32 31 30 29 28 27 26 24 22 22 21 22 25 28 29 30 29 27 24 23 23 23 25 26 27 25 25 24 23 23 25 24 20 18 18 18 19 19 19 19 21 22
32 31 31 29 27 26 25 21 19 17 11 10 16 19 25 29 29 28 27 22 20 21 21 23 23 22 23 22 21 18 16 16 21 22 19 18 20 21 19 20 20 20 21
30 30 29 29 26 25 20 16 14 17 13 8 8 14 15 18 29 27 23 19 16 17 22 23 23 22 25 23 17 15 12 10 18 21 22 22 21 23 21 17 14 14 11
30 29 29 28 23 19 17 16 10 9 8 14 12 9 23 15 29 28 20 17 15 17 17 19 28 24 26 23 14 12 9 7 5 6 7 9 11 13 19 12 12 11 10
31 30 29 27 24 22 21 20 13 9 9 6 9 7 11 17 21 29 27 13 11 17 16 15 18 26 25 24 21 15 12 7 7 8 8 8 8 9 11 11 9 8 7
29 28 26 26 28 26 24 22 18 11 8 2 5 9 7 10 27 28 28 25 22 14 9 14 16 22 22 22 18 19 17 10 8 6 6 5 5 6 8 8 3 6 3
27 25 25 27 27 26 25 22 19 15 13 12 12 6 6 10 9 27 27 25 23 13 13 19 19 18 17 12 18 16 10 7 5 3 2 3 4 5 7 9 9 7 5
28 27 27 25 25 26 26 24 20 17 16 18 13 8 7 9 11 13 14 12 15 10 6 4 7 11 2 0 4 6 6 5 2 0 0 -1 4 5 6 8 7 8 5
29 28 26 26 25 24 23 21 21 16 20 17 10 12 8 8 15 19 15 10 5 6 3 1 -1 -3 2 2 2 3 4 3 2 2 0 1 1 3 4 7 7 7 3
28 26 25 25 24 23 22 20 26 25 26 25 24 18 13 23 27 26 25 23 20 16 4 -5 -8 -7 -4 1 1 1 3 2 1 2 -1 0 -1 -0 2 4 6 4 3
27 27 25 25 23 21 21 20 17 23 27 26 27 27 26 26 26 25 23 21 18 13 2 -3 -9 -7 -2 3 3 3 1 2 3 0 -2 -2 -2 -1 1 2 3 3 3
27 27 24 22 20 20 19 18 18 17 11 7 17 21 25 25 24 23 20 15 6 7 6 2 -3 -1 3 3 2 2 0 -1 -2 -2 -3 -5 -5 -2 -2 0 2 0 2
26 23 21 20 20 18 17 16 15 14 11 6 6 12 20 23 21 19 16 1 0 1 5 5 1 2 2 2 -8 -9 -14 -10 -11 -15 -8 -7 -12 -5 -4 -1 -0 -0 1
25 23 22 21 20 18 18 17 16 15 12 9 7 5 10 8 -4 -8 -9 -9 -3 3 2 4 3 1 -2 -2 -10 -16 -11 -12 -7 -6 -11 -16 -18 -7 -5 -3 -2 -2 1
24 23 23 22 21 20 19 18 17 16 13 11 8 2 6 8 4 1 2 -6 -3 0 -4 2 -2 -6 -7 -8 -2 -10 -10 -13 -10 -8 -7 -7 -15 -9 -4 -3 -2 -0 2
24 24 24 22 22 20 20 19 17 15 14 12 9 5 9 6 6 4 3 -2 -4 -2 -0 -3 -2 -2 -4 -5 -7 -18 -15 -19 -18 -13 -12 -10 -7 -6 -6 -5 -4 -3 -0
24 23 22 21 20 18 18 17 15 13 12 10 11 9 8 4 3 4 2 -12 -7 -10 -9 -8 -12 -8 -8 -13 -13 -11 -12 -11 -10 -15 -17 -14 -8 -7 -7 -6 -4 -3 0
22 20 20 18 18 16 15 12 13 13 12 10 8 7 5 1 -2 -4 -6 -16 -16 -19 -20 -16 -11 -9 -9 -15 -16 -10 -7 -13 -12 -10 -15 -14 -10 -6 -6 -5 -3 0 -1
20 18 17 16 15 13 11 12 10 10 9 8 6 6 4 2 -1 -7 -12 -17 -16 -19 -14 -16 -16 -12 -13 -14 -13 -12 -15 -13 -16 -15 -14 -11 -11 -9 -8 -5 -4 -2 -3
18 18 16 15 12 11 11 9 8 9 8 7 6 4 3 2 -1 -9 -13 -16 -15 -15 -15 -15 -14 -14 -13 -9 -7 -7 -15 -15 -16 -15 -16 -8 -11 -11 -10 -9 -7 -5 -4

GFSGL_sfc_temp_144.txt.gz
Temp
36 36 35 34 33 33 32 31 29 30 29 29 30 30 31 30 29 29 29 29 27 28 29 28 28 31 31 31 31 32 31 32 30 34 35 36 34 34 35 38 41 43 42
37 36 33 33 32 31 30 29 29 29 29 29 30 30 30 28 28 28 28 28 27 27 28 28 28 31 30 30 30 29 29 31 30 27 31 31 30 32 33 34 38 41 41
37 35 33 32 31 29 29 29 29 28 28 29 29 30 30 28 27 28 28 28 28 28 28 27 28 29 28 28 28 28 28 29 29 27 26 29 29 29 29 31 34 35 39
36 35 32 31 30 29 29 29 29 28 27 27 29 34 29 28 28 28 28 28 28 29 29 28 29 29 27 27 27 26 26 25 26 25 25 25 25 26 27 25 26 30 29
36 33 31 30 30 29 29 29 29 28 27 28 29 33 32 29 29 26 27 27 27 27 28 28 28 30 30 29 27 25 24 24 23 23 22 22 21 20 19 22 22 26 28
34 32 32 31 30 29 28 28 27 26 26 26 30 29 29 30 30 29 27 26 26 26 26 26 27 27 27 26 26 27 26 21 20 20 19 18 18 18 19 20 20 22 25
33 31 31 30 29 27 27 26 24 22 23 22 23 26 26 27 30 29 27 25 23 23 23 24 25 26 25 23 22 21 22 25 23 19 17 17 17 17 17 18 19 20 22
31 31 30 29 27 26 24 21 19 17 10 10 14 19 24 27 29 28 26 22 21 22 22 22 21 21 23 22 20 17 14 16 20 21 18 17 19 20 17 19 19 20 23
31 30 29 28 26 24 19 17 16 16 11 5 6 13 17 20 28 27 23 20 18 18 22 23 22 21 24 22 16 14 11 10 16 20 20 20 19 21 19 16 13 16 13
29 30 29 28 24 19 17 15 8 8 8 14 11 7 23 12 28 27 19 19 16 18 18 19 27 23 25 21 13 11 7 7 8 8 9 9 11 12 17 11 10 10 9
31 30 28 27 23 21 18 15 9 8 8 4 7 5 11 18 23 28 25 15 15 17 16 16 19 25 24 22 19 13 11 7 7 7 7 7 8 8 9 10 9 8 8
30 29 26 25 26 24 19 17 14 9 7 3 5 9 8 8 27 28 26 23 21 14 11 13 16 22 22 20 16 17 14 7 4 2 3 3 3 5 6 8 8 9 8
28 26 25 26 26 24 20 16 15 13 14 12 13 6 5 8 13 27 26 24 21 12 10 18 18 17 15 11 16 14 6 4 2 0 0 1 1 3 5 9 9 10 9
27 26 27 27 25 24 23 21 18 16 16 17 13 8 5 7 10 11 11 11 15 8 5 2 6 8 0 -1 3 4 3 2 -0 -1 -2 -1 3 5 5 8 7 8 7
28 28 27 27 26 24 23 21 20 19 20 16 11 13 11 6 8 15 12 8 5 7 1 -1 -1 -3 -0 0 -1 1 2 1 0 -0 -1 -0 1 3 4 7 7 6 5
28 27 27 25 24 22 22 21 25 24 26 26 23 19 14 21 25 24 24 21 18 15 2 -4 -7 -6 -3 -0 -0 0 1 0 1 2 -0 -0 -1 0 2 5 6 4 2
27 27 25 25 22 21 21 21 18 23 27 27 26 27 26 26 26 25 23 20 17 11 1 -3 -8 -7 -1 3 3 2 0 1 2 0 -2 -2 -2 0 2 3 4 3 3
26 26 24 22 21 20 20 19 19 17 14 11 23 23 27 26 25 24 22 16 6 8 5 1 -1 1 3 3 3 1 -1 -2 -2 -2 -3 -4 -6 -1 -1 1 2 0 2
25 23 21 21 20 20 20 18 17 15 13 9 9 14 22 24 22 20 17 4 2 3 5 4 2 3 2 2 -5 -5 -8 -6 -7 -9 -6 -5 -10 -4 -2 -0 0 -1 0
24 23 22 21 20 19 19 18 17 15 14 11 11 11 11 10 -1 -7 -8 -8 -0 4 5 4 4 2 0 -0 -5 -9 -6 -7 -5 -4 -7 -8 -9 -5 -3 -2 -1 -0 2
24 23 22 21 20 20 19 18 17 16 14 12 10 7 7 9 4 2 2 -4 -0 3 0 3 1 -1 -3 -3 -0 -5 -6 -8 -7 -6 -7 -6 -10 -7 -3 -2 -1 0 2
24 23 23 22 21 20 19 19 18 17 15 13 11 8 10 7 6 5 5 1 1 3 2 1 1 1 -0 -0 -2 -10 -8 -10 -10 -8 -9 -9 -7 -5 -5 -4 -3 -2 -0
24 23 23 22 21 20 19 18 17 15 14 12 12 10 9 7 6 6 5 -2 0 -3 -3 -3 -6 -4 -4 -7 -7 -5 -6 -5 -6 -9 -11 -11 -7 -6 -6 -5 -3 -3 -1
23 22 21 19 18 18 16 15 14 14 13 11 10 9 8 5 3 3 1 -4 -7 -12 -15 -13 -6 -5 -5 -10 -10 -6 -3 -7 -7 -7 -11 -11 -9 -6 -6 -5 -3 -3 -3
20 19 18 18 16 15 14 13 12 12 11 10 9 8 6 4 2 -0 -1 -4 -7 -14 -10 -13 -11 -9 -10 -12 -11 -9 -12 -12 -11 -14 -10 -9 -9 -10 -9 -7 -6 -5 -4
19 18 17 16 14 13 13 12 11 10 9 8 8 6 5 4 3 -0 -3 -5 -7 -7 -9 -11 -10 -11 -10 -7 -7 -7 -13 -14 -12 -15 -13 -7 -9 -9 -9 -9 -8 -6 -4

GFSGL_sfc_temp_147.txt.gz
Temp
43 44 42 42 42 41 40 40 40 39 40 39 39 39 38 38 38 38 37 37 36 36 37 36 35 36 35 36 35 35 35 35 33 36 36 34 35 33 37 40 42 42 41
42 41 40 40 40 39 38 38 39 38 38 39 39 37 37 36 37 36 35 36 35 35 35 36 35 37 35 35 34 32 32 33 31 29 32 30 31 33 35 33 35 42 40
41 40 39 38 38 38 37 37 38 38 38 38 38 36 35 35 35 35 35 35 35 34 34 35 35 35 34 35 33 33 33 33 32 30 28 31 31 32 33 36 34 38 38
40 40 39 38 38 37 37 37 37 37 37 38 37 35 35 35 35 35 35 35 35 34 34 34 34 33 33 33 32 31 31 31 31 30 29 29 29 31 33 31 33 33 32
40 38 37 37 37 36 35 35 35 35 36 37 37 36 35 35 34 34 35 34 34 33 33 33 33 31 29 30 31 29 28 28 28 27 26 26 24 24 25 31 31 37 32
38 36 37 35 35 34 34 33 34 33 35 36 35 34 34 34 30 29 33 33 33 32 31 32 32 30 28 25 26 27 27 24 22 23 24 23 22 23 25 28 29 32 31
36 34 34 34 33 33 33 33 32 31 33 32 33 33 33 33 30 29 29 32 31 29 28 29 29 29 28 27 23 22 24 25 24 23 20 19 20 20 22 24 26 29 26
33 32 32 33 31 31 30 28 27 28 27 28 29 30 31 31 29 28 28 30 29 28 27 26 25 25 25 26 24 20 18 20 22 23 21 20 21 22 22 25 27 29 29
31 30 31 32 29 29 25 23 25 25 25 25 28 28 28 28 29 27 28 28 25 25 27 27 26 24 22 22 20 17 16 15 19 20 20 19 19 21 20 23 22 25 20
31 31 31 31 26 23 23 22 24 25 24 27 25 26 28 27 28 27 27 28 25 25 26 27 26 24 23 20 17 16 13 12 14 15 15 16 17 17 18 17 18 18 17
31 31 31 30 27 25 23 23 22 23 23 23 22 23 25 28 27 27 26 26 25 24 24 24 25 24 22 21 19 16 13 14 13 14 15 15 16 16 16 17 17 17 15
31 31 29 28 29 27 23 23 22 21 21 22 23 24 25 27 28 26 25 24 23 22 20 22 23 23 21 19 17 16 13 13 14 14 13 11 12 12 14 16 16 17 17
30 28 28 29 28 27 24 22 23 23 24 24 25 24 24 26 28 27 26 23 21 20 21 20 19 17 16 17 15 13 12 13 13 13 11 11 12 13 16 17 18 17 18
29 30 31 29 27 28 27 27 26 24 24 25 24 24 24 24 24 26 24 21 18 17 16 14 12 11 8 10 13 13 12 12 12 11 12 13 15 16 15 16 16 17 18
29 30 30 29 28 27 27 27 27 27 28 26 24 24 22 22 22 22 20 19 17 14 13 14 13 14 13 13 13 11 13 13 12 12 12 13 13 15 15 16 16 16 15
30 30 29 29 29 28 26 25 26 26 26 26 25 25 24 25 24 22 21 19 17 15 15 14 12 13 13 14 13 13 12 11 12 12 12 12 11 13 13 15 16 14 13
31 31 30 29 28 27 26 25 22 25 27 27 27 26 26 26 25 25 24 21 17 16 16 14 13 13 14 14 14 13 11 11 10 11 10 10 10 12 13 13 13 13 13
29 29 29 28 27 26 25 25 25 23 22 23 27 28 28 27 26 25 22 19 15 15 16 14 13 14 15 14 13 12 11 11 10 10 9 8 8 11 11 11 12 9 11
27 26 26 26 26 26 25 24 24 24 23 21 21 24 27 26 25 24 19 19 16 15 15 14 14 14 14 13 10 9 8 8 7 8 8 8 6 9 9 10 10 8 9
27 25 26 26 24 24 24 24 23 22 22 22 22 23 22 21 17 15 15 15 16 16 16 15 14 14 13 11 10 9 11 10 9 9 8 7 7 8 9 8 9 9 11
26 25 26 25 24 24 24 23 23 22 22 22 22 21 20 21 17 16 15 13 14 15 13 14 12 11 11 10 11 10 9 8 7 7 7 7 5 6 8 9 9 9 10
26 26 25 24 25 24 24 24 23 22 22 21 20 16 16 19 17 16 15 13 13 14 14 13 12 12 12 12 11 9 7 6 7 6 6 4 5 7 7 7 7 8 9
27 25 25 26 25 24 23 24 23 23 22 21 20 17 16 17 16 15 14 12 12 11 12 12 11 10 10 9 10 10 8 8 6 4 2 3 5 6 5 6 6 6 6
27 26 26 25 24 24 24 23 23 22 22 20 19 18 17 16 15 14 13 11 10 9 8 8 9 8 8 7 8 8 8 6 6 4 -1 2 3 4 4 4 5 4 4
27 26 25 24 23 23 22 22 21 20 20 19 18 18 17 16 14 13 11 9 7 6 5 5 6 6 4 2 3 4 0 -3 0 -3 2 1 2 1 2 2 2 3 4
25 25 25 24 23 22 22 21 20 20 19 18 18 17 16 15 14 12 10 7 6 5 5 5 5 3 3 4 4 2 -1 -2 -1 -5 -0 2 1 2 3 2 1 2 3